Weather in Puerto Asis

Colombia     0°30′33″N   76°30′02″W
temp.,
°C
wind,
m/s
gust,
m/s
humid.,
%
clouds,
%
prec.,
mm/h
press.,
hPa
HPBL,
m
17 may, mon
mon1701:00+21sw139965 1.8 1013104
04:00+20w119952 0.0 101231
07:00+21sw129841 0.0 101397
10:00+26s1273100 0.0 1015704
13:00+25sw138349 0.5 1013566
16:00+25s139580 5.9 1011361
19:00+22sse1598100 10.8 1014144
22:00+22se16100100 1.4 1016388
18 may, tue
tue1801:00+21se13100100 10.3 1015178
04:00+20wnw25100100 5.8 1015228
07:00+20wnw14100100 9.3 1016193
10:00+21w1399100 1.3 1017170
13:00+24w1285100 1.3 1015475
16:00+24wsw128024 0.0 1011477
19:00+21ssw0098100 0.0 101211
22:00+20wsw019989 0.0 101514
19 may, wed
wed1901:00+20w119979 0.0 101425
04:00+19w119949 0.0 101315
07:00+20wnw019688 0.0 101467
10:00+28se006110 0.0 1015747
13:00+32s114979 0.0 10121551
16:00+31ssw1252100 0.0 10081710
19:00+24ene118595 0.2 101111
22:00+23ne1193100 0.4 101336
20 may, thu
thu2001:00+22nne019562 0.5 101214
04:00+21ne119918 0.0 101114
07:00+21nne129645 0.0 101399
10:00+27ne1170100 0.0 1014795
13:00+28ne016898 0.0 1012895
16:00+29wnw12626 0.0 10081095
19:00+23nnw00915 0.0 101011
22:00+21n119914 3.2 101314
21 may, fri
fri2101:00+21nw119920 4.7 101213
04:00+20n119927 0.6 101215
07:00+21nnw019862 0.8 101351
10:00+28n01674 0.3 1014553
13:00+31ese215528 0.6 10101548
16:00+30ese126338 0.0 1007856
19:00+24ese119020 0.1 100920
22:00+23ne11955 0.2 101214